Weather History for Valdosta Regional, GA

Change the Weather History Date:

Saturday, December 29, 2012

  Actual Average Record
Temperature  
Mean Temperature 53 °F 51 °F  
Max Temperature 64 °F 63 °F 77 °F (2007)
Min Temperature 42 °F 39 °F 26 °F (2010)
Degree Days  
Heating Degree Days 12 14  
Month to date heating degree days 192 353  
Since 1 July heating degree days 405 584  
Growing Degree Days 4 (Base 50)    
Moisture  
Dew Point 48 °F    
Average Humidity 77    
Maximum Humidity 97    
Minimum Humidity 57    
Precipitation  
Precipitation 0.04 in 0.07 in 1.07 in (2013)
Month to date precipitation 2.70 3.02  
Year to date precipitation 42.72 50.45  
Sea Level Pressure  
Sea Level Pressure 29.95 in    
Wind  
Wind Speed 6 mph (WSW)    
Max Wind Speed 14 mph    
Max Gust Speed 23 mph    
Visibility 8 miles    
Events Rain    
T = Trace of Precipitation, MM = Missing Value Source: NWS Daily Summary

Daily Weather History Graph

Daily Weather History Graph

Search for Another Location

Airport:

Trip Planner

Search our weather history database for the weather conditions in past years. The results will help you decide how hot, cold, wet, or windy it might be!

Date:

Astronomy

Dec. 29, 2012 Rise Set
Actual Time 7:30 AM EST 5:40 PM EST
Civil Twilight 7:03 AM EST 6:07 PM EST
Nautical Twilight 6:33 AM EST 6:37 PM EST
Astronomical Twilight 6:04 AM EST 7:06 PM EST
Moon 7:05 PM EST (12/29) 8:08 AM EST (12/29)
Length of Visible Light 11h 03m
Length of Day
10h 10m
Full, 98% of the Moon is Illuminated
Dec 29
Full
Jan 4
Last Quarter
Jan 11
New
Jan 18
First Quarter
Jan 26
Full

Hourly Weather History & Observations

Time (EST) Temp. Windchill Dew Point Humidity Pressure Visibility Wind Dir Wind Speed Gust Speed Precip Events Conditions
12:53 AM 55.9 °F - 48.0 °F 75% 29.84 in 10.0 mi SSE 8.1 mph - 0.01 in   Overcast
1:53 AM 57.9 °F - 52.0 °F 81% 29.81 in 10.0 mi South 10.4 mph - 0.00 in Rain Light Rain
2:13 AM 57.2 °F - 53.6 °F 88% 29.79 in 7.0 mi South 8.1 mph - 0.00 in Rain Rain
2:53 AM 59.0 °F - 55.0 °F 87% 29.80 in 3.0 mi Variable 4.6 mph - N/A Rain Light Rain
2:57 AM 59.0 °F - 55.4 °F 88% 29.78 in 1.8 mi South 10.4 mph 16.1 mph N/A Rain Heavy Rain
3:09 AM 59.0 °F - 55.4 °F 88% 29.76 in 2.5 mi South 8.1 mph - N/A Rain Rain
3:16 AM 60.8 °F - 55.4 °F 82% 29.77 in 6.0 mi South 8.1 mph - N/A Rain Light Rain
3:42 AM 60.8 °F - 57.2 °F 88% 29.74 in 6.0 mi South 5.8 mph - N/A Rain Light Rain
3:53 AM 61.0 °F - 59.0 °F 93% 29.78 in 3.0 mi Calm Calm - N/A Rain Rain
4:36 AM 64.4 °F - 60.8 °F 88% 29.76 in 1.8 mi Calm Calm - N/A Rain Heavy Rain
4:53 AM 64.0 °F - 61.0 °F 90% 29.79 in 3.0 mi Variable 3.5 mph - N/A Rain Rain
5:02 AM 64.4 °F - 60.8 °F 88% 29.77 in 3.0 mi SSW 3.5 mph - 0.00 in Rain Light Rain
5:09 AM 64.4 °F - 60.8 °F 88% 29.77 in 3.0 mi Calm Calm - 0.00 in Rain Light Rain
5:29 AM 64.4 °F - 60.8 °F 88% 29.78 in 10.0 mi Calm Calm - 0.00 in   Overcast
5:51 AM 64.4 °F - 60.8 °F 88% 29.80 in 10.0 mi Variable 4.6 mph - 0.00 in   Overcast
5:53 AM 64.0 °F - 61.0 °F 90% 29.82 in 10.0 mi Calm Calm - 0.00 in   Overcast
6:37 AM 62.6 °F - 59.0 °F 88% 29.83 in 10.0 mi Variable 5.8 mph - 0.00 in   Overcast
6:53 AM 63.0 °F - 59.0 °F 87% 29.87 in 10.0 mi WNW 5.8 mph 16.1 mph 0.00 in   Overcast
7:53 AM 60.1 °F - 55.9 °F 86% 29.92 in 10.0 mi WNW 8.1 mph - N/A   Overcast
8:53 AM 57.0 °F - 51.1 °F 81% 29.97 in 10.0 mi Variable 6.9 mph 16.1 mph N/A   Overcast
9:53 AM 57.0 °F - 50.0 °F 77% 30.00 in 10.0 mi Variable 4.6 mph - N/A   Overcast
10:53 AM 57.0 °F - 45.0 °F 64% 30.03 in 10.0 mi Variable 6.9 mph - 0.01 in   Overcast
11:53 AM 59.0 °F - 46.0 °F 62% 30.03 in 10.0 mi Variable 5.8 mph - N/A   Overcast
12:53 PM 57.9 °F - 43.0 °F 58% 30.01 in 10.0 mi Variable 4.6 mph - N/A   Overcast
1:53 PM 57.0 °F - 42.1 °F 57% 30.00 in 10.0 mi NW 8.1 mph - N/A   Mostly Cloudy
2:53 PM 57.9 °F - 42.1 °F 56% 30.01 in 10.0 mi Variable 5.8 mph - N/A   Mostly Cloudy
3:53 PM 55.9 °F - 41.0 °F 57% 30.04 in 10.0 mi Variable 5.8 mph - 0.01 in   Mostly Cloudy
4:53 PM 51.1 °F - 37.9 °F 61% 30.07 in 10.0 mi WNW 8.1 mph 17.3 mph N/A   Partly Cloudy
5:23 PM 48.2 °F - 37.4 °F 66% 30.06 in 10.0 mi WNW 10.4 mph 20.7 mph N/A   Mostly Cloudy
6:53 PM 46.0 °F 43.1 °F 34.0 °F 63% 30.15 in 10.0 mi Variable 5.8 mph - N/A   Overcast
7:53 PM 46.0 °F 43.1 °F 33.1 °F 61% 30.17 in 10.0 mi Variable 5.8 mph - N/A   Overcast
8:25 PM 46.4 °F 43.5 °F 33.8 °F 62% 30.16 in 10.0 mi Variable 5.8 mph - N/A   Overcast
8:51 PM 46.4 °F 41.5 °F 32.0 °F 57% 30.18 in 10.0 mi NW 10.4 mph 17.3 mph N/A   Overcast
8:53 PM 46.0 °F 41.4 °F 32.0 °F 58% 30.20 in 10.0 mi NNW 9.2 mph 17.3 mph N/A   Overcast
9:53 PM 44.1 °F 40.8 °F 30.0 °F 58% 30.23 in 10.0 mi Variable 5.8 mph - N/A   Mostly Cloudy
10:53 PM 44.1 °F 41.5 °F 30.0 °F 58% 30.25 in 10.0 mi Variable 4.6 mph - N/A   Overcast
11:53 PM 42.1 °F 38.4 °F 27.0 °F 55% 30.27 in 10.0 mi Variable 5.8 mph 16.1 mph N/A   Partly Cloudy